Regional Weather Roundup
Issued by NWS

Home | Current Version | Previous Version | Text Only | Print | Product List | Glossary Off
Versions: 1 2 3 4 5 6 7 8 9 10 11 12 13 14 15 16 17 18 19 20 21 22 23 24 25 26 27 28 29 30 31 32 33 34 35 36 37 38 39 40 41 42 43 44 45 46 47 48 49 50

000
ASUS43 KMKX 181200
RWRWI

WISCONSIN REGIONAL WEATHER ROUNDUP
NATIONAL WEATHER SERVICE MILWAUKEE/SULLIVAN WI
600 AM CST SUN FEB 18 2018

NOTE: "FAIR" INDICATES FEW OR NO CLOUDS BELOW 12,000 FEET WITH NO
SIGNIFICANT WEATHER AND/OR OBSTRUCTIONS TO VISIBILITY.

WIZ001-002-006>008-014>016-023>028-181300-
NORTHWEST WISCONSIN

CITY           SKY/WX    TMP DP  RH WIND       PRES   REMARKS
SUPERIOR ARPT  CLOUDY    13   7  75 CALM      30.04F
6HR MIN TEMP:   6; 6HR MAX TEMP:  14;

ASHLAND        CLOUDY    13   4  67 S6        30.08F WCI   4
6HR MIN TEMP:   4; 6HR MAX TEMP:  17;

HAYWARD        CLOUDY    13   5  70 S3        30.04R
6HR MIN TEMP:   6; 6HR MAX TEMP:  18;

SIREN          CLOUDY    15   5  65 SE6       30.04F WCI   6
CUMBERLAND     CLOUDY    12   5  73 CALM      30.05F
RICE LAKE      CLOUDY    13   7  74 NE3       30.08F
CHETEK         CLOUDY    12   6  76 CALM      30.08F
LADYSMITH      CLOUDY    12   6  76 CALM      30.10R
EAU CLAIRE     NOT AVBL
MENOMONIE      CLOUDY    14   8  78 E5        30.07F WCI   7
6HR MIN TEMP:   9; 6HR MAX TEMP:  20;

NEW RICHMOND   CLOUDY    15   7  68 E5        30.03F WCI   8
OSCEOLA        CLOUDY    17   9  69 E8        30.06F WCI   7
$$

WIZ003>005-009-010-017-018-181300-
NORTH CENTRAL WISCONSIN

CITY           SKY/WX    TMP DP  RH WIND       PRES   REMARKS
MANITOWISH WTR FAIR       5   2  88 CALM      30.03F
ARBOR VITAE    FAIR       6   3  86 CALM      30.04F
WOODRUFF       FAIR       6   3  86 CALM      30.04F
RHINELANDER    FAIR       6   3  87 CALM      30.05F
6HR MIN TEMP:   6; 6HR MAX TEMP:  17;

EAGLE RIVER    FAIR       5   0  81 CALM      30.06F
LAND O LAKES   FAIR       0  -3  87 CALM      30.07F
PHILLIPS       MOCLDY     6   3  87 CALM      30.03F
TOMAHAWK       FAIR       6   3  88 CALM      30.07S
MEDFORD        MOCLDY     3   0  87 S3        30.06F
MERRILL        FAIR       4   1  88 CALM      30.10R
$$

WIZ029-030-035-036-043>047-181300-
CENTRAL WISCONSIN

CITY           SKY/WX    TMP DP  RH WIND       PRES   REMARKS
WAUSAU         FAIR       7   4  87 SE6       30.09F WCI  -3
6HR MIN TEMP:   5; 6HR MAX TEMP:  20;

MOSINEE        PTCLDY     9   7  92 SE6       30.12F WCI  -1
MARSHFIELD     MOCLDY     8   6  92 E3        30.08F
6HR MIN TEMP:   6; 6HR MAX TEMP:  17;

STEVENS POINT  FAIR       5   4  94 CALM      30.16R
WAUPACA        FAIR      13  10  85 CALM      30.19R
WAUTOMA        FAIR      10   8  92 CALM      30.16F
6HR MIN TEMP:  10; 6HR MAX TEMP:  23;

WISC RAPIDS    FAIR      11   6  81 CALM      30.13F
6HR MIN TEMP:   8; 6HR MAX TEMP:  21;

CAMP DOUGLAS   FAIR      13  11  91 E5        30.12F WCI   5
6HR MIN TEMP:   8; 6HR MAX TEMP:  20;

$$

WIZ011>013-019>022-031-037>040-048>050-181300-
NORTHEAST WISCONSIN

CITY           SKY/WX    TMP DP  RH WIND       PRES   REMARKS
ANTIGO         FAIR       4   2  91 CALM      30.10R
SHAWANO        FAIR      15  12  88 CALM      30.16R
OCONTO         FAIR      13  11  92 CALM      30.17R
STURGEON BAY   FAIR      19  15  84 W6        30.18R WCI  11
6HR MIN TEMP:  19; 6HR MAX TEMP:  24;

GREEN BAY      FAIR      17  13  84 SW7       30.19R WCI   8
6HR MIN TEMP:  12; 6HR MAX TEMP:  23;

MANITOWOC      FAIR      18  16  92 W8        30.21R WCI   8
6HR MIN TEMP:  18; 6HR MAX TEMP:  25;

APPLETON       CLEAR     18  12  79 SW8       30.17R WCI   7
CLINTONVILLE   FAIR       7   4  86 S3        30.17R
OSHKOSH        FAIR      17  15  92 SW3       30.19R
6HR MIN TEMP:  16; 6HR MAX TEMP:  24;

$$

WIZ032>034-041-042-053>061-181300-
SOUTHWEST WISCONSIN

CITY           SKY/WX    TMP DP  RH WIND       PRES   REMARKS
LA CROSSE      FAIR      18  15  88 S6        30.11F WCI  10
6HR MIN TEMP:  14; 6HR MAX TEMP:  21;

SPARTA         FAIR      10   8  93 CALM      30.12F
VIROQUA        FAIR      18  18 100 SE7       30.09F WCI   8
BOSCOBEL       FAIR      13  10  88 CALM      30.16S
6HR MIN TEMP:   9; 6HR MAX TEMP:  23;

PRAIRIE DU CHI FAIR      16  14  90 SE5       30.15S WCI   9
PLATTEVILLE    CLOUDY    16  16 100 SE6       30.14F VSB 1/4 WCI   7
$$

WIZ056-057-062-063-064-067-068-181300-
SOUTH CENTRAL WISCONSIN

CITY           SKY/WX    TMP DP  RH WIND       PRES   REMARKS
REEDSBURG      FAIR      14  14  99 E3        30.15F
BARABOO/DELLS  FAIR      16  14  91 S6        30.16F WCI   8
LONE ROCK      NOT AVBL
MINERAL POINT  FOG       19  19 100 SE3       30.13F VSB 1/4
MADISON        FAIR      14  10  84 S3        30.18F
6HR MIN TEMP:  11; 6HR MAX TEMP:  22;

MIDDLETON      FAIR      16  13  90 CALM      30.18F
WATERTOWN      FAIR       9   8  98 CALM      30.20F FOG
MONROE         FOG       18  14  86 S5        30.17F VSB 1/4 WCI  11
JANESVILLE     FOG       14  14 100 CALM      30.21F VSB 1/2
$$

WIZ051-052-058>065-066-070>072-181300-
SOUTHEAST WISCONSIN

CITY           SKY/WX    TMP DP  RH WIND       PRES   REMARKS
MILWAUKEE      FAIR      23  20  88 W5        30.23R WCI  17
6HR MIN TEMP:  22; 6HR MAX TEMP:  28;

WAUKESHA       CLEAR     12  10  92 S3        30.22R
MILWAUKEE/TIMM FAIR      19  18  93 CALM      30.24R FOG
RACINE         FAIR      22  20  92 W7        30.25R WCI  13
6HR MIN TEMP:  22; 6HR MAX TEMP:  27;

BURLINGTON       N/A     15  13  92 CALM      30.23R FOG
KENOSHA        FAIR      20  17  88 SW3       30.24R FOG
6HR MIN TEMP:  17; 6HR MAX TEMP:  26;

FOND DU LAC    FAIR      19  15  84 SW6       30.19S WCI  11
6HR MIN TEMP:  18; 6HR MAX TEMP:  23;

SHEBOYGAN      FAIR      15  15 100 SW5       30.20R WCI   8
6HR MIN TEMP:  14; 6HR MAX TEMP:  26;

WEST BEND      FAIR      18  18 100 CALM      30.21R
JUNEAU         FOG       16  14  93 CALM      30.21S VSB 1/4
$$

LSZ147-162-181300-
LAKE SUPERIOR

STATION/POSITION TIME  TEMP    WIND        PRES    WAVE
                       AIR SEA DIR/SP/G            HT/PER
                 (UTC) (F)     (DEG/KT/KT) (MB)    (FT/S)
DEVILS ISLAND    1100   19     290/  9/ 11 1020.3R
SAXON HARBOR     1140   13     200/  3/  5 1017.9F
$$

LMZ867-665-643>646-181300-
LAKE MICHIGAN

STATION/POSITION TIME  TEMP    WIND        PRES    WAVE
                       AIR SEA DIR/SP/G            HT/PER
                 (UTC) (F)     (DEG/KT/KT) (MB)    (FT/S)
NORTHPORT PIER   1140   20                 1021.0F
KEWAUNEE LAKESHO 1130   20     290/  5/  7 1021.0R
SHEBOYGAN LAKESH 1100   22     240/  7/  8 1023.3R
PORT WASHINGTON  1140   22     260/  5/  7 1024.4R
MILWAUKEE LAKESH 1130   24     240/  5/  7   N/A
KENOSHA   LAKESH 1100   24     250/  8/ 11 1023.4
$$

TC  - TEMPERATURE IN CELSIUS
VSB - VISIBILITY IN STATUTE MILES
WCI - WIND CHILL INDEX
HX  - HEAT INDEX




USA.gov is the U.S. government's official web portal to all federal, state and local government web resources and services.